QPF
0.03 0.03 0.06 0.08 0.10 0.08 0.07 0.06 0.08 0.14 0.16 0.15 0.15 0.14 0.14 0.14 0.14 0.13 0.15 0.16 0.16 0.14 0.13 0.14 0.14 0.13 0.13 0.13 0.15 0.12 0.09 0.08 0.07 0.05 0.05 0.05 0.04 0.06 0.08 0.12 0.11 0.08 0.10
0.03 0.05 0.06 0.07 0.09 0.06 0.06 0.06 0.07 0.10 0.14 0.15 0.17 0.15 0.14 0.13 0.12 0.12 0.14 0.16 0.14 0.12 0.12 0.13 0.14 0.13 0.13 0.14 0.13 0.10 0.08 0.07 0.08 0.06 0.05 0.04 0.06 0.11 0.15 0.15 0.15 0.10 0.09
0.04 0.04 0.04 0.05 0.06 0.06 0.05 0.06 0.08 0.09 0.11 0.14 0.15 0.17 0.16 0.15 0.13 0.11 0.13 0.14 0.14 0.13 0.13 0.13 0.12 0.12 0.10 0.09 0.07 0.08 0.07 0.07 0.08 0.09 0.09 0.04 0.04 0.06 0.08 0.10 0.10 0.05 0.05
0.04 0.04 0.04 0.03 0.05 0.05 0.04 0.06 0.09 0.12 0.13 0.13 0.12 0.13 0.14 0.14 0.13 0.13 0.13 0.12 0.12 0.12 0.12 0.12 0.12 0.10 0.08 0.06 0.05 0.06 0.06 0.05 0.06 0.10 0.10 0.06 0.04 0.03 0.03 0.04 0.04 0.03 0.03
0.05 0.06 0.04 0.03 0.04 0.05 0.04 0.06 0.08 0.13 0.15 0.15 0.14 0.13 0.12 0.13 0.12 0.14 0.13 0.10 0.10 0.11 0.11 0.11 0.10 0.08 0.06 0.04 0.04 0.04 0.04 0.04 0.06 0.09 0.09 0.06 0.03 0.02 0.02 0.02 0.02 0.02 0.01
0.04 0.04 0.02 0.02 0.04 0.04 0.05 0.06 0.06 0.09 0.11 0.14 0.16 0.16 0.14 0.13 0.12 0.13 0.12 0.10 0.09 0.08 0.09 0.09 0.09 0.07 0.06 0.04 0.02 0.02 0.02 0.03 0.05 0.08 0.07 0.07 0.03 0.01 0.01 0.01 0.01 0.01 0.01
0.02 0.02 0.02 0.02 0.03 0.04 0.04 0.04 0.05 0.07 0.08 0.10 0.14 0.17 0.15 0.16 0.16 0.16 0.16 0.12 0.09 0.08 0.08 0.09 0.08 0.07 0.06 0.04 0.03 0.03 0.03 0.03 0.05 0.06 0.06 0.07 0.03 0.01 0.01 0.01 0.02 0.01 0.01
0.02 0.02 0.02 0.01 0.02 0.02 0.03 0.03 0.04 0.06 0.06 0.06 0.09 0.11 0.11 0.11 0.12 0.13 0.13 0.10 0.09 0.08 0.08 0.08 0.07 0.07 0.05 0.03 0.03 0.03 0.03 0.03 0.03 0.04 0.05 0.04 0.02 0.02 0.02 0.02 0.02 0.02 0.01
0.01 0.01 0.02 0.03 0.02 0.03 0.04 0.02 0.02 0.03 0.03 0.05 0.06 0.09 0.09 0.10 0.09 0.10 0.09 0.07 0.08 0.08 0.08 0.07 0.06 0.05 0.03 0.02 0.02 0.02 0.02 0.03 0.01 0.03 0.04 0.03 0.01 0.02 0.03 0.03 0.02 0.02 0.01
0.00 0.01 0.02 0.03 0.03 0.07 0.09 0.04 0.03 0.03 0.04 0.05 0.06 0.09 0.08 0.08 0.09 0.09 0.07 0.07 0.08 0.08 0.07 0.06 0.05 0.03 0.02 0.02 0.01 0.01 0.01 0.01 0.02 0.02 0.03 0.03 0.01 0.02 0.02 0.03 0.03 0.02 0.02
0.01 0.01 0.01 0.02 0.03 0.08 0.11 0.10 0.07 0.07 0.06 0.07 0.08 0.10 0.09 0.10 0.10 0.10 0.08 0.07 0.07 0.07 0.07 0.05 0.03 0.02 0.02 0.03 0.02 0.01 0.01 0.01 0.01 0.02 0.05 0.05 0.02 0.01 0.01 0.02 0.02 0.03 0.02
0.02 0.02 0.01 0.02 0.05 0.09 0.11 0.10 0.10 0.10 0.08 0.09 0.09 0.10 0.10 0.10 0.10 0.08 0.08 0.07 0.06 0.06 0.07 0.06 0.04 0.03 0.03 0.03 0.03 0.02 0.01 0.01 0.01 0.03 0.04 0.02 0.01 0.01 0.01 0.01 0.01 0.02 0.02
0.01 0.02 0.02 0.03 0.08 0.11 0.11 0.08 0.08 0.10 0.09 0.09 0.09 0.09 0.10 0.10 0.09 0.09 0.11 0.12 0.09 0.07 0.08 0.07 0.07 0.05 0.03 0.03 0.03 0.03 0.02 0.02 0.03 0.08 0.08 0.06 0.02 0.01 0.01 0.01 0.01 0.01 0.03
0.01 0.01 0.01 0.02 0.04 0.07 0.08 0.07 0.07 0.08 0.09 0.10 0.08 0.09 0.09 0.09 0.09 0.10 0.11 0.09 0.08 0.07 0.07 0.06 0.07 0.05 0.04 0.03 0.03 0.03 0.03 0.04 0.04 0.06 0.05 0.03 0.01 0.01 0.01 0.01 0.02 0.02 0.03
0.02 0.01 0.01 0.03 0.05 0.07 0.07 0.08 0.08 0.09 0.08 0.08 0.09 0.08 0.08 0.09 0.09 0.08 0.08 0.07 0.06 0.05 0.05 0.04 0.04 0.04 0.03 0.04 0.04 0.03 0.03 0.02 0.04 0.05 0.05 0.02 0.01 0.02 0.03 0.03 0.03 0.03 0.04
0.02 0.02 0.01 0.02 0.06 0.08 0.07 0.07 0.07 0.07 0.07 0.06 0.07 0.10 0.07 0.09 0.11 0.09 0.09 0.09 0.06 0.06 0.06 0.04 0.03 0.03 0.03 0.05 0.06 0.06 0.04 0.03 0.05 0.04 0.05 0.04 0.03 0.02 0.03 0.06 0.06 0.05 0.05
0.02 0.03 0.02 0.02 0.03 0.04 0.04 0.04 0.04 0.04 0.04 0.05 0.07 0.13 0.08 0.09 0.12 0.12 0.11 0.10 0.07 0.05 0.05 0.04 0.04 0.04 0.05 0.07 0.08 0.07 0.05 0.04 0.07 0.05 0.05 0.07 0.06 0.04 0.03 0.05 0.06 0.06 0.06
0.02 0.02 0.02 0.01 0.02 0.02 0.03 0.05 0.03 0.03 0.04 0.06 0.06 0.17 0.11 0.09 0.11 0.09 0.10 0.09 0.07 0.06 0.05 0.06 0.07 0.07 0.10 0.10 0.10 0.09 0.08 0.08 0.06 0.06 0.05 0.07 0.08 0.06 0.05 0.04 0.04 0.06 0.08
0.01 0.01 0.01 0.01 0.03 0.03 0.03 0.03 0.02 0.03 0.04 0.06 0.08 0.19 0.13 0.07 0.07 0.07 0.09 0.08 0.06 0.05 0.05 0.06 0.10 0.10 0.12 0.13 0.10 0.08 0.08 0.08 0.08 0.07 0.07 0.07 0.08 0.08 0.07 0.05 0.04 0.04 0.06
0.00 0.01 0.01 0.01 0.02 0.02 0.03 0.03 0.04 0.04 0.03 0.04 0.08 0.18 0.14 0.09 0.08 0.08 0.08 0.07 0.05 0.06 0.09 0.09 0.11 0.12 0.12 0.12 0.10 0.08 0.09 0.07 0.06 0.07 0.08 0.08 0.08 0.06 0.08 0.08 0.07 0.06 0.05
0.00 0.00 0.00 0.01 0.02 0.03 0.05 0.05 0.04 0.05 0.04 0.04 0.07 0.13 0.12 0.09 0.09 0.10 0.10 0.09 0.06 0.08 0.09 0.09 0.11 0.12 0.12 0.10 0.10 0.11 0.11 0.07 0.06 0.06 0.07 0.08 0.08 0.07 0.09 0.11 0.12 0.10 0.07
0.00 0.00 0.00 0.01 0.02 0.03 0.04 0.04 0.04 0.05 0.04 0.04 0.05 0.09 0.08 0.08 0.09 0.10 0.09 0.08 0.07 0.09 0.09 0.09 0.10 0.09 0.08 0.08 0.09 0.11 0.12 0.10 0.08 0.05 0.06 0.05 0.05 0.06 0.08 0.08 0.11 0.11 0.12
0.00 0.00 0.00 0.01 0.02 0.02 0.02 0.03 0.03 0.04 0.04 0.04 0.03 0.05 0.04 0.04 0.07 0.09 0.09 0.09 0.09 0.08 0.10 0.11 0.09 0.07 0.08 0.08 0.06 0.09 0.12 0.13 0.11 0.09 0.07 0.05 0.05 0.05 0.05 0.05 0.05 0.07 0.12
0.00 0.00 0.00 0.01 0.01 0.01 0.02 0.03 0.04 0.04 0.05 0.04 0.04 0.04 0.03 0.02 0.04 0.05 0.06 0.06 0.06 0.06 0.09 0.08 0.08 0.06 0.07 0.07 0.07 0.07 0.09 0.13 0.12 0.10 0.09 0.08 0.07 0.06 0.04 0.04 0.04 0.05 0.08
0.00 0.00 0.00 0.01 0.01 0.01 0.02 0.03 0.05 0.04 0.03 0.02 0.02 0.03 0.03 0.02 0.02 0.03 0.04 0.04 0.05 0.05 0.06 0.06 0.07 0.05 0.04 0.05 0.06 0.08 0.09 0.11 0.11 0.10 0.09 0.06 0.05 0.04 0.04 0.04 0.05 0.06 0.08
0.00 0.00 0.00 0.00 0.01 0.01 0.01 0.02 0.03 0.04 0.04 0.03 0.03 0.03 0.04 0.03 0.03 0.02 0.03 0.03 0.04 0.04 0.04 0.04 0.05 0.04 0.04 0.05 0.05 0.06 0.08 0.08 0.08 0.08 0.08 0.08 0.06 0.04 0.03 0.04 0.05 0.05 0.07
MSLP
1011.34 1011.05 1010.88 1010.86 1010.94 1011.05 1011.15 1011.16 1011.08 1010.89 1010.64 1010.38 1010.16 1010.01 1009.94 1009.91 1009.91 1009.88 1009.82 1009.72 1009.60 1009.52 1009.50 1009.59 1009.79 1010.11 1010.49 1010.90 1011.29 1011.64 1011.93 1012.17 1012.39 1012.62 1012.87 1013.18 1013.52 1013.90 1014.28 1014.66 1015.00 1015.31 1015.59
1011.55 1011.32 1011.21 1011.21 1011.29 1011.40 1011.45 1011.42 1011.29 1011.08 1010.83 1010.61 1010.45 1010.39 1010.41 1010.47 1010.55 1010.58 1010.56 1010.49 1010.39 1010.31 1010.30 1010.38 1010.58 1010.86 1011.20 1011.54 1011.85 1012.12 1012.34 1012.53 1012.73 1012.96 1013.25 1013.59 1013.98 1014.39 1014.78 1015.14 1015.45 1015.71 1015.94
1011.64 1011.49 1011.45 1011.50 1011.61 1011.72 1011.77 1011.72 1011.57 1011.35 1011.12 1010.94 1010.84 1010.84 1010.93 1011.06 1011.19 1011.27 1011.28 1011.22 1011.14 1011.07 1011.06 1011.14 1011.32 1011.56 1011.84 1012.11 1012.34 1012.53 1012.69 1012.85 1013.04 1013.30 1013.63 1014.02 1014.45 1014.88 1015.27 1015.60 1015.87 1016.08 1016.27
1011.57 1011.53 1011.58 1011.71 1011.88 1012.02 1012.09 1012.06 1011.93 1011.73 1011.53 1011.38 1011.33 1011.38 1011.51 1011.68 1011.83 1011.93 1011.95 1011.91 1011.84 1011.79 1011.79 1011.87 1012.02 1012.22 1012.44 1012.63 1012.78 1012.90 1013.01 1013.14 1013.34 1013.63 1014.01 1014.45 1014.91 1015.36 1015.74 1016.04 1016.26 1016.42 1016.56
1011.38 1011.43 1011.59 1011.82 1012.07 1012.29 1012.42 1012.43 1012.34 1012.18 1012.02 1011.91 1011.89 1011.96 1012.11 1012.28 1012.44 1012.54 1012.57 1012.54 1012.49 1012.46 1012.47 1012.55 1012.68 1012.84 1013.00 1013.11 1013.19 1013.24 1013.30 1013.42 1013.63 1013.95 1014.37 1014.86 1015.35 1015.81 1016.17 1016.44 1016.61 1016.73 1016.84
1011.09 1011.25 1011.51 1011.85 1012.20 1012.50 1012.71 1012.79 1012.75 1012.65 1012.52 1012.45 1012.44 1012.52 1012.67 1012.83 1012.97 1013.06 1013.09 1013.08 1013.05 1013.05 1013.08 1013.17 1013.29 1013.42 1013.51 1013.55 1013.55 1013.54 1013.56 1013.66 1013.88 1014.23 1014.70 1015.22 1015.74 1016.20 1016.56 1016.80 1016.94 1017.02 1017.10
1010.80 1011.04 1011.38 1011.82 1012.26 1012.65 1012.93 1013.07 1013.10 1013.04 1012.96 1012.90 1012.91 1012.99 1013.12 1013.26 1013.38 1013.46 1013.49 1013.50 1013.50 1013.52 1013.59 1013.70 1013.81 1013.91 1013.95 1013.93 1013.87 1013.80 1013.77 1013.86 1014.08 1014.46 1014.95 1015.51 1016.05 1016.52 1016.88 1017.10 1017.22 1017.29 1017.35
1010.57 1010.85 1011.26 1011.76 1012.26 1012.71 1013.04 1013.24 1013.30 1013.29 1013.24 1013.21 1013.22 1013.30 1013.41 1013.54 1013.64 1013.71 1013.75 1013.77 1013.80 1013.87 1013.97 1014.10 1014.21 1014.29 1014.29 1014.22 1014.10 1013.98 1013.92 1013.98 1014.21 1014.60 1015.11 1015.70 1016.27 1016.75 1017.12 1017.35 1017.46 1017.52 1017.58
1010.46 1010.76 1011.19 1011.71 1012.23 1012.70 1013.04 1013.25 1013.34 1013.35 1013.32 1013.31 1013.34 1013.42 1013.53 1013.65 1013.74 1013.81 1013.86 1013.90 1013.97 1014.07 1014.20 1014.35 1014.47 1014.53 1014.51 1014.40 1014.24 1014.08 1013.99 1014.03 1014.25 1014.64 1015.18 1015.78 1016.37 1016.88 1017.27 1017.51 1017.64 1017.71 1017.78
1010.50 1010.78 1011.19 1011.69 1012.19 1012.63 1012.95 1013.14 1013.23 1013.24 1013.23 1013.24 1013.29 1013.39 1013.51 1013.63 1013.73 1013.81 1013.87 1013.93 1014.01 1014.14 1014.29 1014.45 1014.58 1014.64 1014.59 1014.46 1014.27 1014.09 1013.98 1014.00 1014.21 1014.61 1015.14 1015.76 1016.37 1016.90 1017.31 1017.59 1017.74 1017.83 1017.91
1010.67 1010.93 1011.30 1011.75 1012.18 1012.55 1012.81 1012.96 1013.01 1013.01 1013.01 1013.05 1013.13 1013.25 1013.40 1013.54 1013.65 1013.74 1013.81 1013.88 1013.98 1014.11 1014.27 1014.44 1014.56 1014.61 1014.56 1014.42 1014.23 1014.03 1013.91 1013.93 1014.12 1014.51 1015.04 1015.65 1016.27 1016.83 1017.26 1017.57 1017.76 1017.87 1017.97
1010.97 1011.19 1011.51 1011.88 1012.23 1012.51 1012.69 1012.77 1012.78 1012.77 1012.77 1012.83 1012.94 1013.10 1013.28 1013.44 1013.57 1013.67 1013.74 1013.81 1013.90 1014.02 1014.17 1014.33 1014.45 1014.49 1014.45 1014.31 1014.12 1013.93 1013.81 1013.83 1014.01 1014.37 1014.89 1015.49 1016.10 1016.66 1017.12 1017.45 1017.68 1017.82 1017.94
1011.35 1011.54 1011.80 1012.10 1012.36 1012.54 1012.63 1012.65 1012.62 1012.58 1012.59 1012.67 1012.81 1012.99 1013.19 1013.38 1013.52 1013.61 1013.68 1013.73 1013.80 1013.90 1014.03 1014.16 1014.27 1014.32 1014.28 1014.17 1014.00 1013.83 1013.73 1013.74 1013.91 1014.25 1014.72 1015.29 1015.88 1016.43 1016.90 1017.25 1017.51 1017.68 1017.83
1011.75 1011.92 1012.15 1012.38 1012.56 1012.67 1012.69 1012.64 1012.58 1012.53 1012.53 1012.62 1012.77 1012.97 1013.18 1013.37 1013.50 1013.59 1013.63 1013.66 1013.70 1013.77 1013.86 1013.98 1014.07 1014.13 1014.11 1014.02 1013.89 1013.75 1013.67 1013.68 1013.84 1014.14 1014.57 1015.09 1015.64 1016.16 1016.62 1016.98 1017.26 1017.47 1017.64
1012.13 1012.30 1012.50 1012.69 1012.82 1012.87 1012.85 1012.77 1012.68 1012.62 1012.62 1012.69 1012.84 1013.03 1013.22 1013.38 1013.50 1013.56 1013.57 1013.57 1013.58 1013.62 1013.70 1013.79 1013.88 1013.94 1013.95 1013.89 1013.80 1013.71 1013.65 1013.67 1013.81 1014.07 1014.45 1014.90 1015.39 1015.87 1016.30 1016.66 1016.95 1017.19 1017.39
1012.42 1012.60 1012.81 1012.98 1013.09 1013.13 1013.09 1013.00 1012.91 1012.83 1012.82 1012.87 1012.98 1013.12 1013.27 1013.39 1013.46 1013.49 1013.48 1013.45 1013.45 1013.47 1013.53 1013.62 1013.71 1013.78 1013.81 1013.80 1013.75 1013.69 1013.66 1013.69 1013.81 1014.03 1014.35 1014.73 1015.15 1015.57 1015.96 1016.31 1016.61 1016.88 1017.11
1012.59 1012.80 1013.02 1013.20 1013.33 1013.38 1013.36 1013.29 1013.20 1013.12 1013.08 1013.09 1013.14 1013.22 1013.29 1013.34 1013.37 1013.36 1013.32 1013.29 1013.28 1013.31 1013.37 1013.47 1013.57 1013.66 1013.71 1013.73 1013.72 1013.70 1013.69 1013.72 1013.82 1014.00 1014.25 1014.56 1014.91 1015.26 1015.61 1015.94 1016.25 1016.54 1016.81
1012.63 1012.86 1013.10 1013.31 1013.47 1013.57 1013.59 1013.56 1013.49 1013.41 1013.35 1013.30 1013.28 1013.26 1013.25 1013.23 1013.20 1013.16 1013.12 1013.10 1013.11 1013.16 1013.25 1013.35 1013.47 1013.57 1013.64 1013.68 1013.70 1013.69 1013.70 1013.74 1013.82 1013.96 1014.15 1014.39 1014.67 1014.96 1015.27 1015.57 1015.88 1016.18 1016.49
1012.52 1012.78 1013.05 1013.30 1013.51 1013.66 1013.74 1013.76 1013.73 1013.66 1013.57 1013.47 1013.36 1013.26 1013.16 1013.06 1012.98 1012.92 1012.89 1012.90 1012.95 1013.04 1013.16 1013.29 1013.42 1013.53 1013.61 1013.65 1013.67 1013.68 1013.69 1013.72 1013.78 1013.89 1014.04 1014.22 1014.43 1014.67 1014.92 1015.20 1015.50 1015.81 1016.14
1012.29 1012.57 1012.88 1013.17 1013.44 1013.65 1013.80 1013.88 1013.89 1013.84 1013.73 1013.58 1013.41 1013.22 1013.04 1012.89 1012.77 1012.70 1012.69 1012.74 1012.84 1012.98 1013.14 1013.30 1013.43 1013.53 1013.60 1013.63 1013.63 1013.63 1013.64 1013.66 1013.71 1013.79 1013.90 1014.03 1014.19 1014.37 1014.59 1014.83 1015.11 1015.42 1015.76
1011.98 1012.29 1012.62 1012.96 1013.27 1013.54 1013.76 1013.90 1013.96 1013.93 1013.83 1013.65 1013.43 1013.19 1012.95 1012.75 1012.61 1012.55 1012.57 1012.66 1012.81 1013.00 1013.19 1013.36 1013.49 1013.57 1013.61 1013.61 1013.59 1013.57 1013.56 1013.57 1013.61 1013.67 1013.75 1013.85 1013.96 1014.10 1014.26 1014.47 1014.72 1015.01 1015.35
1011.65 1011.99 1012.34 1012.71 1013.06 1013.38 1013.65 1013.85 1013.96 1013.97 1013.88 1013.70 1013.46 1013.19 1012.92 1012.70 1012.55 1012.50 1012.54 1012.67 1012.86 1013.08 1013.28 1013.45 1013.57 1013.62 1013.62 1013.58 1013.53 1013.49 1013.46 1013.47 1013.50 1013.56 1013.62 1013.69 1013.77 1013.86 1013.98 1014.13 1014.34 1014.60 1014.91
1011.36 1011.73 1012.10 1012.48 1012.86 1013.20 1013.51 1013.75 1013.91 1013.96 1013.91 1013.75 1013.52 1013.24 1012.97 1012.74 1012.60 1012.55 1012.61 1012.75 1012.96 1013.18 1013.39 1013.54 1013.63 1013.65 1013.61 1013.54 1013.46 1013.40 1013.37 1013.37 1013.41 1013.47 1013.52 1013.58 1013.63 1013.68 1013.74 1013.85 1014.00 1014.21 1014.48
1011.19 1011.57 1011.96 1012.33 1012.70 1013.05 1013.37 1013.64 1013.83 1013.93 1013.92 1013.80 1013.60 1013.34 1013.08 1012.86 1012.71 1012.66 1012.71 1012.85 1013.05 1013.26 1013.45 1013.58 1013.64 1013.62 1013.56 1013.46 1013.37 1013.31 1013.29 1013.30 1013.35 1013.42 1013.48 1013.52 1013.55 1013.56 1013.58 1013.63 1013.72 1013.88 1014.09
1011.17 1011.57 1011.94 1012.30 1012.64 1012.96 1013.27 1013.54 1013.76 1013.89 1013.92 1013.84 1013.68 1013.45 1013.21 1012.99 1012.83 1012.76 1012.80 1012.91 1013.07 1013.25 1013.41 1013.51 1013.55 1013.52 1013.45 1013.35 1013.27 1013.22 1013.22 1013.26 1013.34 1013.42 1013.49 1013.53 1013.54 1013.53 1013.51 1013.50 1013.54 1013.64 1013.80
1011.34 1011.73 1012.08 1012.39 1012.68 1012.96 1013.23 1013.48 1013.69 1013.84 1013.90 1013.86 1013.73 1013.54 1013.31 1013.09 1012.92 1012.82 1012.81 1012.88 1012.99 1013.13 1013.25 1013.33 1013.36 1013.33 1013.27 1013.20 1013.15 1013.13 1013.17 1013.24 1013.34 1013.45 1013.53 1013.58 1013.58 1013.55 1013.50 1013.46 1013.45 1013.51 1013.62
Thickness
5785 5785 5783 5784 5785 5786 5787 5787 5787 5788 5790 5791 5790 5789 5789 5789 5788 5787 5786 5785 5784 5783 5782 5781 5780 5778 5777 5775 5773 5771 5770 5769 5769 5767 5766 5764 5762 5761 5759 5757 5757 5754 5752
5789 5786 5783 5784 5784 5785 5785 5786 5786 5787 5788 5789 5788 5787 5787 5787 5786 5785 5784 5784 5783 5781 5780 5779 5778 5776 5775 5773 5772 5770 5769 5769 5767 5766 5764 5763 5761 5759 5758 5757 5756 5753 5751
5791 5787 5784 5784 5784 5784 5785 5785 5786 5786 5786 5786 5785 5785 5785 5784 5783 5783 5782 5782 5781 5780 5779 5777 5776 5774 5773 5772 5771 5769 5768 5768 5767 5765 5764 5762 5760 5758 5757 5756 5754 5752 5750
5792 5789 5785 5783 5784 5784 5784 5784 5784 5784 5784 5784 5784 5783 5783 5782 5782 5781 5781 5780 5779 5778 5777 5776 5775 5773 5772 5771 5770 5768 5768 5767 5766 5765 5764 5762 5760 5757 5756 5754 5753 5751 5749
5792 5788 5784 5783 5783 5783 5783 5783 5783 5783 5783 5783 5783 5782 5781 5781 5780 5779 5779 5778 5778 5777 5776 5775 5774 5772 5771 5770 5769 5768 5768 5767 5766 5765 5764 5762 5759 5755 5754 5753 5751 5750 5748
5792 5789 5785 5783 5783 5783 5783 5783 5783 5783 5782 5782 5782 5781 5780 5779 5779 5778 5778 5777 5776 5776 5774 5773 5772 5771 5770 5770 5769 5768 5767 5767 5766 5765 5764 5761 5757 5754 5753 5751 5750 5748 5747
5793 5790 5786 5783 5783 5783 5783 5782 5782 5782 5781 5781 5781 5780 5779 5778 5778 5778 5777 5776 5775 5774 5773 5772 5771 5770 5769 5768 5768 5768 5768 5767 5767 5765 5763 5760 5756 5754 5752 5750 5748 5747 5746
5796 5791 5787 5784 5783 5783 5782 5782 5782 5781 5781 5781 5781 5780 5779 5778 5777 5777 5776 5775 5774 5773 5772 5771 5769 5769 5768 5768 5768 5768 5767 5768 5768 5767 5762 5759 5755 5753 5751 5749 5747 5746 5744
5799 5794 5789 5786 5784 5783 5782 5782 5782 5781 5781 5781 5781 5780 5778 5777 5777 5776 5775 5774 5773 5772 5771 5770 5769 5768 5768 5768 5768 5769 5769 5769 5769 5767 5763 5758 5755 5753 5750 5748 5746 5745 5743
5800 5797 5794 5791 5787 5785 5784 5783 5782 5782 5782 5782 5781 5780 5779 5778 5777 5776 5774 5773 5773 5772 5771 5770 5769 5768 5768 5768 5769 5769 5770 5770 5770 5768 5763 5758 5755 5753 5751 5748 5746 5744 5743
5798 5798 5797 5795 5791 5790 5787 5784 5783 5782 5782 5782 5781 5781 5780 5779 5779 5777 5775 5774 5773 5772 5771 5770 5769 5769 5768 5769 5769 5770 5770 5771 5771 5768 5763 5758 5755 5753 5751 5749 5747 5745 5743
5793 5796 5797 5796 5793 5792 5790 5786 5785 5785 5783 5783 5783 5782 5781 5781 5781 5779 5776 5775 5774 5773 5772 5771 5770 5770 5769 5770 5771 5771 5772 5773 5772 5767 5762 5758 5756 5754 5751 5749 5747 5745 5743
5795 5797 5797 5794 5792 5792 5791 5789 5788 5787 5784 5784 5784 5784 5783 5782 5781 5779 5777 5775 5774 5773 5773 5772 5771 5771 5772 5772 5773 5773 5773 5774 5772 5767 5760 5758 5756 5754 5751 5749 5747 5744 5742
5796 5796 5797 5795 5792 5791 5791 5791 5790 5789 5786 5786 5785 5785 5784 5783 5783 5781 5780 5779 5778 5777 5775 5775 5774 5774 5775 5775 5775 5775 5776 5773 5771 5766 5760 5759 5757 5754 5752 5750 5747 5745 5743
5796 5796 5796 5794 5791 5790 5789 5789 5790 5789 5787 5786 5786 5785 5785 5784 5783 5782 5781 5780 5780 5779 5778 5777 5776 5776 5775 5775 5776 5776 5775 5773 5770 5766 5762 5758 5756 5754 5753 5751 5748 5746 5743
5797 5797 5796 5794 5791 5789 5788 5788 5789 5789 5788 5787 5786 5785 5784 5784 5783 5782 5781 5780 5780 5779 5778 5777 5777 5776 5776 5776 5775 5774 5773 5772 5769 5766 5762 5758 5756 5754 5753 5751 5748 5746 5743
5800 5799 5798 5797 5794 5791 5790 5789 5790 5790 5789 5788 5786 5785 5784 5784 5783 5782 5781 5780 5780 5779 5778 5778 5778 5777 5776 5775 5773 5773 5772 5771 5769 5766 5763 5759 5756 5754 5752 5751 5749 5746 5744
5805 5802 5800 5801 5796 5793 5792 5791 5792 5791 5790 5789 5787 5786 5785 5784 5783 5782 5781 5780 5780 5780 5779 5777 5776 5774 5773 5772 5771 5771 5771 5769 5768 5766 5763 5760 5758 5755 5752 5750 5748 5746 5744
5809 5805 5802 5802 5798 5795 5794 5793 5792 5792 5791 5790 5789 5788 5787 5785 5784 5782 5781 5780 5781 5780 5779 5777 5775 5773 5770 5770 5770 5769 5769 5767 5766 5765 5763 5760 5758 5756 5752 5749 5747 5745 5743
5814 5810 5806 5803 5800 5798 5796 5794 5793 5792 5791 5790 5790 5789 5787 5786 5785 5783 5783 5782 5782 5780 5778 5776 5773 5772 5771 5769 5769 5768 5767 5766 5765 5763 5762 5760 5757 5755 5753 5750 5746 5744 5742
5816 5811 5808 5805 5802 5800 5797 5793 5790 5789 5790 5790 5791 5790 5789 5788 5787 5785 5784 5782 5781 5779 5777 5776 5774 5771 5769 5770 5764 5761 5763 5765 5763 5762 5760 5758 5755 5753 5752 5748 5745 5743 5741
5819 5815 5811 5807 5805 5803 5800 5798 5796 5794 5793 5794 5793 5792 5790 5789 5788 5787 5784 5782 5782 5779 5777 5775 5773 5769 5768 5769 5763 5755 5751 5752 5756 5760 5757 5755 5753 5751 5749 5747 5744 5742 5739
5823 5819 5817 5812 5809 5806 5804 5802 5800 5797 5795 5794 5793 5792 5792 5790 5789 5786 5785 5783 5782 5780 5777 5775 5773 5770 5766 5767 5766 5758 5748 5744 5748 5752 5753 5752 5751 5749 5747 5745 5742 5740 5737
5830 5827 5822 5817 5813 5810 5808 5804 5799 5794 5791 5793 5794 5793 5793 5791 5790 5788 5785 5783 5781 5780 5778 5776 5774 5772 5768 5763 5764 5764 5760 5756 5746 5742 5745 5748 5748 5745 5744 5743 5740 5737 5734
5837 5832 5826 5820 5816 5813 5810 5807 5803 5799 5797 5797 5797 5794 5792 5791 5790 5788 5786 5783 5781 5779 5777 5775 5774 5771 5769 5764 5762 5761 5759 5758 5754 5744 5738 5740 5742 5743 5742 5740 5737 5734 5731
5842 5837 5830 5823 5818 5816 5812 5810 5805 5801 5799 5797 5795 5792 5791 5791 5789 5788 5786 5783 5780 5778 5776 5775 5773 5771 5768 5765 5763 5761 5758 5754 5750 5746 5740 5737 5736 5738 5739 5737 5734 5731 5728